AUR600A EGJB-EGKK

Flight info

Callsign AUR600A
Flight time 0h 46m
Altitude 13000
Route ORIST L982 VASUX
Aircraft AT76/M-SDFGIRY/S

Departure

Time 2026-05-04 06:05
Airport Guernsey Airport (EGJB)

Arrival

Time 2026-05-04 06:51
Airport London Gatwick Airport (EGKK)
Time Latitude Longitude Altitude Speed Heading
2026-05-04 05:43 49.43255 -2.59684 322 ft 0 kts 177°
2026-05-04 05:57 49.43266 -2.59685 324 ft 4 kts 177°
2026-05-04 05:58 49.43293 -2.59686 325 ft 4 kts 177°
2026-05-04 05:58 49.43320 -2.59688 325 ft 4 kts 177°
2026-05-04 05:58 49.43347 -2.59689 325 ft 4 kts 177°
2026-05-04 05:58 49.43358 -2.59690 325 ft 0 kts 177°
2026-05-04 06:01 49.43356 -2.59685 325 ft 0 kts 136°
2026-05-04 06:03 49.43400 -2.59200 328 ft 8 kts 26°
2026-05-04 06:03 49.43468 -2.59199 328 ft 10 kts 357°
2026-05-04 06:05 49.43449 -2.62785 998 ft 132 kts 269°
2026-05-04 06:05 49.43335 -2.65673 1776 ft 149 kts 266°
2026-05-04 06:05 49.43273 -2.67386 1892 ft 169 kts 266°
2026-05-04 06:06 49.43220 -2.69210 2285 ft 172 kts 267°
2026-05-04 06:06 49.43172 -2.71038 2704 ft 171 kts 267°
2026-05-04 06:06 49.43421 -2.72798 3020 ft 175 kts 306°
2026-05-04 06:06 49.44472 -2.73691 3399 ft 180 kts 355°
2026-05-04 06:07 49.45648 -2.73101 3777 ft 184 kts 40°
2026-05-04 06:07 49.46581 -2.71753 4158 ft 185 kts 43°
2026-05-04 06:07 49.47498 -2.70367 4553 ft 186 kts 46°
2026-05-04 06:07 49.48393 -2.68915 4943 ft 188 kts 47°
2026-05-04 06:08 49.49285 -2.67432 5271 ft 191 kts 48°
2026-05-04 06:08 49.50195 -2.65930 5636 ft 193 kts 47°
2026-05-04 06:08 49.51125 -2.64427 6010 ft 195 kts 47°
2026-05-04 06:08 49.52063 -2.62912 6353 ft 197 kts 48°
2026-05-04 06:09 49.53010 -2.61385 6702 ft 197 kts 48°
2026-05-04 06:09 49.53960 -2.59853 7050 ft 198 kts 48°
2026-05-04 06:11 49.60701 -2.48961 9402 ft 204 kts 49°
2026-05-04 06:11 49.61680 -2.47377 9740 ft 204 kts 49°
2026-05-04 06:13 49.68651 -2.36056 11695 ft 212 kts 50°
2026-05-04 06:14 49.74924 -2.25820 12914 ft 234 kts 50°
2026-05-04 06:14 49.76062 -2.23957 12953 ft 242 kts 49°
2026-05-04 06:15 49.77242 -2.22036 12973 ft 250 kts 49°
2026-05-04 06:15 49.78455 -2.20060 12985 ft 256 kts 49°
2026-05-04 06:15 49.79693 -2.18039 12987 ft 261 kts 49°
2026-05-04 06:15 49.80949 -2.15984 12991 ft 264 kts 49°
2026-05-04 06:16 49.82218 -2.13900 12991 ft 267 kts 49°
2026-05-04 06:16 49.83500 -2.11798 12989 ft 269 kts 49°
2026-05-04 06:16 49.84789 -2.09680 12988 ft 271 kts 49°
2026-05-04 06:16 49.86086 -2.07549 12987 ft 272 kts 49°
2026-05-04 06:17 49.87387 -2.05408 12988 ft 273 kts 49°
2026-05-04 06:17 49.88690 -2.03261 12986 ft 274 kts 49°
2026-05-04 06:17 49.89998 -2.01109 12985 ft 274 kts 49°
2026-05-04 06:17 49.91144 -1.99214 12982 ft 275 kts 49°
2026-05-04 06:18 49.92453 -1.97055 12979 ft 275 kts 49°
2026-05-04 06:18 49.93761 -1.94892 12980 ft 275 kts 49°
2026-05-04 06:18 49.95070 -1.92728 12981 ft 275 kts 49°
2026-05-04 06:20 50.04759 -1.79073 12980 ft 275 kts 38°
2026-05-04 06:20 50.06294 -1.77287 12981 ft 276 kts 38°
2026-05-04 06:21 50.12452 -1.70119 12979 ft 277 kts 38°
2026-05-04 06:21 50.13991 -1.68318 12979 ft 277 kts 38°
2026-05-04 06:22 50.15533 -1.66517 12980 ft 277 kts 38°
2026-05-04 06:22 50.17075 -1.64714 12982 ft 277 kts 38°
2026-05-04 06:25 50.37099 -1.41155 12980 ft 277 kts 38°
2026-05-04 06:25 50.38639 -1.39328 12979 ft 277 kts 38°
2026-05-04 06:26 50.40176 -1.37507 12974 ft 277 kts 38°
2026-05-04 06:26 50.41713 -1.35689 12981 ft 277 kts 38°
2026-05-04 06:26 50.42210 -1.35098 12974 ft 277 kts 38°
2026-05-04 06:27 50.47663 -1.28627 12973 ft 277 kts 38°
2026-05-04 06:28 50.49197 -1.26800 12976 ft 277 kts 38°
2026-05-04 06:28 50.50713 -1.24939 12975 ft 277 kts 40°
2026-05-04 06:28 50.52194 -1.23011 12975 ft 277 kts 41°
2026-05-04 06:28 50.53666 -1.21063 12974 ft 277 kts 41°
2026-05-04 06:29 50.55142 -1.19121 12972 ft 277 kts 40°
2026-05-04 06:29 50.56621 -1.17180 12971 ft 277 kts 41°
2026-05-04 06:29 50.58097 -1.15237 12975 ft 277 kts 41°
2026-05-04 06:29 50.59573 -1.13296 12975 ft 277 kts 40°
2026-05-04 06:30 50.61049 -1.11348 12976 ft 277 kts 41°
2026-05-04 06:30 50.62525 -1.09403 12975 ft 277 kts 41°
2026-05-04 06:30 50.64005 -1.07455 12977 ft 277 kts 41°
2026-05-04 06:30 50.65480 -1.05504 12978 ft 277 kts 40°
2026-05-04 06:31 50.66859 -1.03415 12983 ft 275 kts 51°
2026-05-04 06:31 50.68040 -1.01036 12979 ft 276 kts 54°
2026-05-04 06:31 50.69038 -0.98929 12970 ft 276 kts 54°
2026-05-04 06:31 50.70206 -0.96521 12974 ft 276 kts 53°
2026-05-04 06:32 50.71399 -0.94192 12975 ft 276 kts 52°
2026-05-04 06:33 50.79926 -0.77719 12977 ft 274 kts 52°
2026-05-04 06:34 50.81011 -0.75365 12856 ft 258 kts 66°
2026-05-04 06:34 50.81556 -0.72719 12630 ft 252 kts 79°
2026-05-04 06:34 50.81863 -0.70001 12334 ft 251 kts 83°
2026-05-04 06:34 50.82116 -0.67270 12048 ft 251 kts 84°
2026-05-04 06:35 50.82376 -0.64546 11765 ft 250 kts 83°
2026-05-04 06:36 50.84534 -0.45729 9864 ft 247 kts 81°
2026-05-04 06:37 50.84842 -0.43061 9578 ft 246 kts 81°
2026-05-04 06:37 50.85146 -0.40394 9281 ft 246 kts 81°
2026-05-04 06:37 50.85450 -0.37737 8990 ft 245 kts 81°
2026-05-04 06:37 50.85754 -0.35086 8702 ft 244 kts 81°
2026-05-04 06:38 50.86054 -0.32445 8419 ft 243 kts 81°
2026-05-04 06:38 50.86352 -0.29824 8160 ft 241 kts 81°
2026-05-04 06:40 50.88754 -0.12951 6651 ft 232 kts 52°
2026-05-04 06:40 50.90094 -0.10309 6360 ft 233 kts 51°
2026-05-04 06:40 50.90797 -0.08981 6200 ft 233 kts 50°
2026-05-04 06:40 50.91848 -0.07024 5964 ft 233 kts 50°
2026-05-04 06:41 50.92892 -0.05058 5729 ft 233 kts 50°
2026-05-04 06:41 50.93934 -0.03091 5500 ft 233 kts 50°
2026-05-04 06:41 50.94974 -0.01123 5270 ft 233 kts 50°
2026-05-04 06:41 50.96013 0.00845 5042 ft 232 kts 50°
2026-05-04 06:42 50.97051 0.02808 4819 ft 232 kts 49°
2026-05-04 06:42 50.98084 0.04769 4609 ft 231 kts 50°
2026-05-04 06:42 50.99095 0.06689 4431 ft 228 kts 49°
2026-05-04 06:44 51.08292 0.11882 3130 ft 219 kts 359°
2026-05-04 06:44 51.09817 0.11909 2922 ft 219 kts
2026-05-04 06:44 51.11339 0.11964 2717 ft 219 kts
2026-05-04 06:45 51.12859 0.12013 2516 ft 218 kts
2026-05-04 06:45 51.14373 0.12059 2312 ft 218 kts
2026-05-04 06:45 51.15871 0.11970 2130 ft 213 kts 346°
2026-05-04 06:45 51.17055 0.10671 2056 ft 208 kts 308°
2026-05-04 06:46 51.17622 0.08602 2026 ft 202 kts 285°
2026-05-04 06:46 51.17788 0.07519 2013 ft 200 kts 284°
2026-05-04 06:46 51.17892 0.05350 1996 ft 194 kts 269°
2026-05-04 06:48 51.16547 -0.06644 1620 ft 129 kts 260°
2026-05-04 06:48 51.16356 -0.08028 1444 ft 127 kts 259°
2026-05-04 06:49 51.16162 -0.09396 1280 ft 126 kts 259°
2026-05-04 06:50 51.14898 -0.18441 208 ft 70 kts 257°
2026-05-04 06:51 51.14813 -0.19054 205 ft 48 kts 258°
2026-05-04 06:51 51.14758 -0.19483 206 ft 30 kts 265°
2026-05-04 06:51 51.14776 -0.19757 203 ft 20 kts 282°
2026-05-04 06:51 51.14800 -0.19937 206 ft 14 kts 282°
2026-05-04 06:52 51.14836 -0.20050 202 ft 8 kts 358°
2026-05-04 06:52 51.14863 -0.20001 205 ft 5 kts 72°
2026-05-04 06:52 51.14872 -0.19943 208 ft 6 kts 78°
2026-05-04 06:52 51.14881 -0.19879 202 ft 6 kts 77°
2026-05-04 06:53 51.14890 -0.19814 208 ft 6 kts 77°
2026-05-04 06:53 51.14903 -0.19727 214 ft 10 kts 78°
2026-05-04 06:53 51.14919 -0.19602 205 ft 13 kts 77°
2026-05-04 06:53 51.14941 -0.19446 204 ft 15 kts 77°
2026-05-04 06:54 51.14964 -0.19287 207 ft 15 kts 77°
2026-05-04 06:54 51.14988 -0.19115 207 ft 16 kts 78°
2026-05-04 06:54 51.15010 -0.18949 200 ft 14 kts 77°
2026-05-04 06:54 51.15030 -0.18803 204 ft 13 kts 78°
2026-05-04 06:55 51.15049 -0.18669 205 ft 12 kts 77°
2026-05-04 06:55 51.15065 -0.18552 202 ft 10 kts 77°
2026-05-04 06:55 51.15080 -0.18445 203 ft 10 kts 78°
2026-05-04 06:55 51.15095 -0.18340 204 ft 10 kts 77°
2026-05-04 06:56 51.15108 -0.18240 201 ft 8 kts 78°
2026-05-04 06:57 51.15258 -0.17153 201 ft 14 kts 77°
2026-05-04 06:58 51.15278 -0.17007 206 ft 13 kts 77°
2026-05-04 06:58 51.15297 -0.16870 202 ft 13 kts 78°
2026-05-04 06:58 51.15318 -0.16729 208 ft 12 kts 70°
2026-05-04 06:58 51.15353 -0.16625 206 ft 9 kts 77°
2026-05-04 06:59 51.15366 -0.16531 201 ft 8 kts 77°
2026-05-04 06:59 51.15394 -0.16480 205 ft 5 kts 57°
2026-05-04 06:59 51.15401 -0.16435 205 ft 4 kts 78°
2026-05-04 06:59 51.15405 -0.16409 208 ft 0 kts 77°